Starlink 30132

operational
NORAD ID: 56703 Int'l Des: 2023-067 Owner: SPXS Country: US Constellation: starlink
LEOCIRCULAR

Starlink 30132について

説明を読み込み中...

リアルタイム位置

3D地球を読み込み中...

次回通過

高度履歴

Altitude vs Time

uPlot chart will show altitude changes over time

軌道要素

1 56703U 23067R 25305.14495486 -.00000275 00000-0 -52883-5 0 9992
2 56703 43.0043 252.9262 0000955 266.2816 93.7918 15.02530613136323
Epoch: Nov 1, 2025 • Age: 27 hours

現在のステータス

高度 565.7 km
速度 7.58 km/s
衛星直下点 -27.54°S, 75.06°E
打ち上げ日 May 19, 2023
運用期間 2.4 years
タイプ internet

技術仕様

分類 Payload
質量 730.00 kg
乾燥質量 700.00 kg
総質量 730.00 kg
長さ 0.30 m
直径 4.10 m
スパン 29.00 m
形状 Box + pan
製造者 SPXS
バスタイプ Starlink V2M
フェーズステータス In Orbit
所有者/国 SPXS/US

大規模コンステレーション

Loading constellations...